SWR7U LHBP-LSZH

Flight info

Callsign SWR7U
Flight time 1h 21m
Altitude 34000
Route GILEP DCT ZOLKU DCT SUNIS DCT SETAL DCT ERKIR DCT KPT L856 NEGRA
Aircraft A20N/M-SDE2E3FGHIJ1RWXY/LB1

Departure

Time 2026-05-07 18:37
Airport Budapest Liszt Ferenc International Airport (LHBP)

Arrival

Time 2026-05-07 19:58
Airport Zürich Airport (LSZH)
Time Latitude Longitude Altitude Speed Heading
2026-05-07 17:29 47.43625 19.25911 457 ft 0 kts 313°
2026-05-07 18:28 47.43609 19.25932 457 ft 4 kts 334°
2026-05-07 18:28 47.43584 19.25940 457 ft 4 kts 15°
2026-05-07 18:29 47.43562 19.25923 455 ft 2 kts 42°
2026-05-07 18:29 47.43561 19.25922 455 ft 1 kts 42°
2026-05-07 18:31 47.43563 19.25925 455 ft 2 kts 42°
2026-05-07 18:32 47.43596 19.25969 457 ft 10 kts 42°
2026-05-07 18:32 47.43658 19.26039 457 ft 12 kts 17°
2026-05-07 18:32 47.43710 19.26010 457 ft 7 kts 316°
2026-05-07 18:32 47.43726 19.25984 457 ft 3 kts 311°
2026-05-07 18:33 47.43733 19.25924 457 ft 9 kts 253°
2026-05-07 18:33 47.43680 19.25837 457 ft 14 kts 221°
2026-05-07 18:33 47.43634 19.25777 457 ft 13 kts 222°
2026-05-07 18:33 47.43562 19.25681 456 ft 15 kts 222°
2026-05-07 18:34 47.43477 19.25567 457 ft 16 kts 223°
2026-05-07 18:34 47.43388 19.25444 457 ft 19 kts 222°
2026-05-07 18:34 47.43299 19.25326 457 ft 14 kts 222°
2026-05-07 18:34 47.43227 19.25229 457 ft 12 kts 223°
2026-05-07 18:35 47.43159 19.25140 457 ft 11 kts 222°
2026-05-07 18:35 47.43148 19.25125 456 ft 0 kts 222°
2026-05-07 18:35 47.43126 19.25093 457 ft 11 kts 227°
2026-05-07 18:35 47.43096 19.24967 457 ft 15 kts 278°
2026-05-07 18:36 47.43146 19.24867 456 ft 14 kts 314°
2026-05-07 18:36 47.43312 19.24600 453 ft 70 kts 312°
2026-05-07 18:36 47.43780 19.23846 454 ft 128 kts 312°
2026-05-07 18:36 47.44470 19.22725 610 ft 159 kts 312°
2026-05-07 18:37 47.45246 19.21434 1103 ft 167 kts 312°
2026-05-07 18:37 47.46053 19.20140 1692 ft 174 kts 311°
2026-05-07 18:37 47.46895 19.18810 2259 ft 179 kts 311°
2026-05-07 18:37 47.47773 19.17408 2696 ft 195 kts 310°
2026-05-07 18:38 47.48599 19.15733 3039 ft 213 kts 290°
2026-05-07 18:38 47.48740 19.13488 3449 ft 232 kts 259°
2026-05-07 18:38 47.48200 19.11110 4074 ft 252 kts 239°
2026-05-07 18:38 47.47114 19.09136 5122 ft 254 kts 222°
2026-05-07 18:39 47.45664 19.07524 6331 ft 258 kts 212°
2026-05-07 18:39 47.44104 19.06229 7396 ft 262 kts 208°
2026-05-07 18:39 47.42447 19.05033 8462 ft 267 kts 206°
2026-05-07 18:39 47.40753 19.03862 9541 ft 272 kts 206°
2026-05-07 18:40 47.39015 19.02662 10491 ft 281 kts 206°
2026-05-07 18:40 47.37177 19.01379 10998 ft 303 kts 206°
2026-05-07 18:40 47.35206 18.99989 11504 ft 323 kts 207°
2026-05-07 18:40 47.33159 18.98540 12435 ft 326 kts 207°
2026-05-07 18:41 47.31281 18.96709 13438 ft 327 kts 223°
2026-05-07 18:41 47.29849 18.94095 14342 ft 331 kts 240°
2026-05-07 18:41 47.29058 18.90880 15170 ft 338 kts 258°
2026-05-07 18:41 47.29040 18.87382 15958 ft 349 kts 276°
2026-05-07 18:42 47.29865 18.83947 16736 ft 363 kts 295°
2026-05-07 18:42 47.31285 18.80816 17478 ft 372 kts 301°
2026-05-07 18:42 47.32805 18.77661 18223 ft 379 kts 301°
2026-05-07 18:42 47.34341 18.74477 18906 ft 383 kts 301°
2026-05-07 18:43 47.35862 18.71299 19616 ft 386 kts 300°
2026-05-07 18:43 47.37414 18.68027 20316 ft 390 kts 300°
2026-05-07 18:43 47.38971 18.64727 21015 ft 394 kts 300°
2026-05-07 18:43 47.40502 18.61323 21705 ft 396 kts 295°
2026-05-07 18:44 47.41735 18.57730 22359 ft 396 kts 288°
2026-05-07 18:44 47.42662 18.53892 23056 ft 395 kts 282°
2026-05-07 18:44 47.43444 18.49974 23695 ft 399 kts 282°
2026-05-07 18:44 47.44246 18.46039 24300 ft 402 kts 282°
2026-05-07 18:45 47.45061 18.42066 24876 ft 404 kts 282°
2026-05-07 18:45 47.45878 18.38069 25429 ft 407 kts 281°
2026-05-07 18:45 47.46697 18.34043 26010 ft 410 kts 281°
2026-05-07 18:45 47.47518 18.29995 26537 ft 413 kts 281°
2026-05-07 18:46 47.48342 18.25885 27074 ft 415 kts 279°
2026-05-07 18:46 47.49020 18.21772 27568 ft 415 kts 275°
2026-05-07 18:46 47.49264 18.17578 28047 ft 408 kts 262°
2026-05-07 18:46 47.48823 18.13466 28527 ft 402 kts 250°
2026-05-07 18:47 47.47961 18.09535 29014 ft 402 kts 246°
2026-05-07 18:47 47.47039 18.05623 29473 ft 405 kts 247°
2026-05-07 18:47 47.46167 18.01650 29923 ft 408 kts 249°
2026-05-07 18:47 47.45355 17.97621 30324 ft 411 kts 250°
2026-05-07 18:48 47.44580 17.93548 30713 ft 413 kts 250°
2026-05-07 18:48 47.43817 17.89433 31147 ft 414 kts 251°
2026-05-07 18:48 47.43074 17.85388 31642 ft 413 kts 251°
2026-05-07 18:48 47.42314 17.81252 32206 ft 411 kts 251°
2026-05-07 18:49 47.41577 17.77259 32736 ft 409 kts 251°
2026-05-07 18:49 47.40833 17.73249 33253 ft 406 kts 251°
2026-05-07 18:49 47.40086 17.69232 33772 ft 404 kts 251°
2026-05-07 18:49 47.39342 17.65241 33968 ft 402 kts 251°
2026-05-07 18:50 47.38601 17.61273 33995 ft 401 kts 251°
2026-05-07 18:50 47.37114 17.53341 33996 ft 401 kts 251°
2026-05-07 18:51 47.35613 17.45361 33993 ft 401 kts 251°
2026-05-07 18:51 47.34127 17.37493 33994 ft 401 kts 251°
2026-05-07 18:52 47.32624 17.29572 34000 ft 401 kts 251°
2026-05-07 18:52 47.31115 17.21651 34000 ft 401 kts 251°
2026-05-07 18:53 47.29601 17.13739 34007 ft 401 kts 251°
2026-05-07 18:53 47.28086 17.05853 34013 ft 400 kts 251°
2026-05-07 18:54 47.26563 16.97963 34016 ft 400 kts 251°
2026-05-07 18:54 47.25035 16.90073 34018 ft 400 kts 251°
2026-05-07 18:55 47.23514 16.82257 34019 ft 399 kts 251°
2026-05-07 18:55 47.21979 16.74392 34020 ft 399 kts 251°
2026-05-07 18:56 47.20450 16.66596 34026 ft 399 kts 251°
2026-05-07 18:56 47.18906 16.58754 34027 ft 398 kts 251°
2026-05-07 18:57 47.17359 16.50928 34032 ft 398 kts 251°
2026-05-07 18:57 47.15812 16.43134 34029 ft 398 kts 251°
2026-05-07 18:58 47.14660 16.35145 34034 ft 401 kts 261°
2026-05-07 18:58 47.14581 16.26893 34036 ft 406 kts 270°
2026-05-07 18:59 47.15022 16.18683 34037 ft 406 kts 270°
2026-05-07 18:59 47.15442 16.10387 34030 ft 407 kts 270°
2026-05-07 19:00 47.15853 16.02074 34021 ft 408 kts 270°
2026-05-07 19:00 47.16260 15.93737 34044 ft 411 kts 270°
2026-05-07 19:01 47.16665 15.85310 34037 ft 414 kts 270°
2026-05-07 19:01 47.17066 15.76851 34037 ft 415 kts 270°
2026-05-07 19:02 47.17462 15.68373 34035 ft 415 kts 271°
2026-05-07 19:02 47.17851 15.59893 34034 ft 416 kts 271°
2026-05-07 19:03 47.18231 15.51465 34026 ft 416 kts 271°
2026-05-07 19:03 47.18608 15.42977 34027 ft 416 kts 271°
2026-05-07 19:04 47.18979 15.34468 34032 ft 417 kts 271°
2026-05-07 19:04 47.19345 15.25961 34039 ft 417 kts 271°
2026-05-07 19:05 47.19702 15.17508 34039 ft 416 kts 271°
2026-05-07 19:05 47.20055 15.08989 34065 ft 416 kts 271°
2026-05-07 19:06 47.20400 15.00501 34074 ft 416 kts 271°
2026-05-07 19:06 47.20906 14.87763 34088 ft 415 kts 271°
2026-05-07 19:07 47.21235 14.79284 34081 ft 415 kts 271°
2026-05-07 19:07 47.21558 14.70812 34075 ft 414 kts 271°
2026-05-07 19:08 47.21875 14.62351 34077 ft 414 kts 271°
2026-05-07 19:08 47.22123 14.55580 34072 ft 414 kts 271°
2026-05-07 19:09 47.22427 14.47118 34071 ft 414 kts 271°
2026-05-07 19:09 47.22676 14.40082 34069 ft 413 kts 271°
2026-05-07 19:10 47.22969 14.31640 34073 ft 413 kts 271°
2026-05-07 19:10 47.23542 14.23209 34074 ft 416 kts 279°
2026-05-07 19:11 47.24767 14.14886 34076 ft 416 kts 280°
2026-05-07 19:11 47.25973 14.06617 34082 ft 416 kts 280°
2026-05-07 19:12 47.27190 13.98203 34082 ft 416 kts 280°
2026-05-07 19:12 47.28389 13.89860 34088 ft 416 kts 280°
2026-05-07 19:13 47.29582 13.81508 34083 ft 416 kts 280°
2026-05-07 19:13 47.30763 13.73198 34082 ft 416 kts 280°
2026-05-07 19:14 47.31940 13.64863 34085 ft 415 kts 280°
2026-05-07 19:14 47.33112 13.56525 34073 ft 415 kts 279°
2026-05-07 19:15 47.34278 13.48183 34075 ft 414 kts 279°
2026-05-07 19:15 47.35435 13.39857 34070 ft 414 kts 280°
2026-05-07 19:16 47.36585 13.31533 34070 ft 414 kts 279°
2026-05-07 19:16 47.37728 13.23207 34064 ft 414 kts 280°
2026-05-07 19:17 47.38866 13.14879 34056 ft 413 kts 279°
2026-05-07 19:17 47.39986 13.06635 34064 ft 413 kts 279°
2026-05-07 19:18 47.41117 12.98257 34068 ft 413 kts 279°
2026-05-07 19:18 47.42235 12.89924 34076 ft 413 kts 279°
2026-05-07 19:19 47.43348 12.81590 34075 ft 414 kts 279°
2026-05-07 19:19 47.44455 12.73239 34078 ft 414 kts 279°
2026-05-07 19:20 47.45550 12.64937 34080 ft 414 kts 279°
2026-05-07 19:20 47.46644 12.56590 34081 ft 414 kts 279°
2026-05-07 19:21 47.47733 12.48237 34069 ft 413 kts 279°
2026-05-07 19:21 47.48816 12.39886 34066 ft 413 kts 279°
2026-05-07 19:22 47.49886 12.31581 34062 ft 413 kts 279°
2026-05-07 19:22 47.50954 12.23235 34069 ft 413 kts 279°
2026-05-07 19:23 47.52018 12.14870 34068 ft 413 kts 279°
2026-05-07 19:23 47.53074 12.06522 34062 ft 413 kts 279°
2026-05-07 19:24 47.54136 11.98135 33857 ft 414 kts 279°
2026-05-07 19:24 47.54679 11.94006 33583 ft 414 kts 280°
2026-05-07 19:24 47.55239 11.89803 33316 ft 415 kts 280°
2026-05-07 19:25 47.55801 11.85589 33038 ft 415 kts 280°
2026-05-07 19:25 47.56354 11.81410 32774 ft 416 kts 280°
2026-05-07 19:25 47.56909 11.77185 32510 ft 417 kts 280°
2026-05-07 19:25 47.57465 11.72941 32249 ft 418 kts 280°
2026-05-07 19:26 47.58015 11.68715 31989 ft 419 kts 280°
2026-05-07 19:26 47.58559 11.64530 31736 ft 420 kts 280°
2026-05-07 19:26 47.59110 11.60279 31481 ft 421 kts 280°
2026-05-07 19:26 47.59659 11.56023 31225 ft 422 kts 280°
2026-05-07 19:27 47.60210 11.51736 30971 ft 423 kts 280°
2026-05-07 19:27 47.60768 11.47392 30739 ft 423 kts 280°
2026-05-07 19:27 47.61307 11.43178 30484 ft 422 kts 280°
2026-05-07 19:27 47.61851 11.38914 30235 ft 421 kts 280°
2026-05-07 19:28 47.62394 11.34645 29977 ft 419 kts 280°
2026-05-07 19:28 47.62933 11.30387 29672 ft 417 kts 280°
2026-05-07 19:28 47.63471 11.26132 29385 ft 416 kts 280°
2026-05-07 19:28 47.64002 11.21916 29086 ft 414 kts 280°
2026-05-07 19:29 47.64521 11.17781 28820 ft 413 kts 280°
2026-05-07 19:29 47.65051 11.13550 28541 ft 411 kts 280°
2026-05-07 19:29 47.65571 11.09379 28258 ft 410 kts 280°
2026-05-07 19:29 47.66066 11.05397 27995 ft 409 kts 280°
2026-05-07 19:30 47.66573 11.01310 27729 ft 407 kts 280°
2026-05-07 19:30 47.67083 10.97179 27461 ft 406 kts 280°
2026-05-07 19:30 47.67592 10.93056 27193 ft 405 kts 280°
2026-05-07 19:30 47.68096 10.88951 26932 ft 404 kts 280°
2026-05-07 19:31 47.68599 10.84843 26673 ft 403 kts 280°
2026-05-07 19:31 47.69098 10.80757 26414 ft 402 kts 280°
2026-05-07 19:31 47.69593 10.76689 26155 ft 400 kts 280°
2026-05-07 19:31 47.70087 10.72619 25903 ft 399 kts 280°
2026-05-07 19:32 47.70577 10.68566 25651 ft 399 kts 280°
2026-05-07 19:32 47.71064 10.64529 25402 ft 397 kts 279°
2026-05-07 19:32 47.71551 10.60481 25171 ft 396 kts 279°
2026-05-07 19:32 47.72033 10.56458 25068 ft 395 kts 279°
2026-05-07 19:33 47.72513 10.52433 25060 ft 396 kts 279°
2026-05-07 19:33 47.72989 10.48444 25059 ft 396 kts 279°
2026-05-07 19:33 47.73311 10.45725 25057 ft 396 kts 279°
2026-05-07 19:33 47.73330 10.45571 25058 ft 396 kts 279°
2026-05-07 19:34 47.73826 10.41385 25062 ft 396 kts 279°
2026-05-07 19:34 47.74287 10.37345 25061 ft 396 kts 277°
2026-05-07 19:34 47.74512 10.33268 25064 ft 396 kts 271°
2026-05-07 19:34 47.74451 10.29170 25063 ft 396 kts 268°
2026-05-07 19:35 47.74349 10.25070 25063 ft 396 kts 268°
2026-05-07 19:35 47.74258 10.20976 25060 ft 396 kts 268°
2026-05-07 19:35 47.74168 10.16886 25062 ft 396 kts 268°
2026-05-07 19:35 47.74076 10.12810 25017 ft 396 kts 268°
2026-05-07 19:36 47.73981 10.08707 24787 ft 395 kts 268°
2026-05-07 19:36 47.73884 10.04634 24544 ft 394 kts 268°
2026-05-07 19:36 47.73786 10.00576 24302 ft 392 kts 268°
2026-05-07 19:36 47.73686 9.96527 24061 ft 391 kts 268°
2026-05-07 19:37 47.73585 9.92491 23816 ft 390 kts 268°
2026-05-07 19:37 47.73484 9.88468 23576 ft 389 kts 268°
2026-05-07 19:37 47.73381 9.84457 23296 ft 388 kts 268°
2026-05-07 19:37 47.73278 9.80470 23022 ft 386 kts 268°
2026-05-07 19:38 47.73173 9.76495 22746 ft 385 kts 267°
2026-05-07 19:38 47.73066 9.72461 22465 ft 384 kts 267°
2026-05-07 19:38 47.72961 9.68566 22205 ft 382 kts 267°
2026-05-07 19:38 47.72852 9.64576 21942 ft 381 kts 267°
2026-05-07 19:39 47.72744 9.60705 21675 ft 379 kts 267°
2026-05-07 19:39 47.72633 9.56793 21410 ft 378 kts 267°
2026-05-07 19:39 47.72522 9.52898 21150 ft 377 kts 267°
2026-05-07 19:39 47.72445 9.50268 20975 ft 376 kts 267°
2026-05-07 19:40 47.72118 9.45164 20637 ft 374 kts 257°
2026-05-07 19:40 47.71244 9.41530 20372 ft 374 kts 244°
2026-05-07 19:40 47.69821 9.38303 20146 ft 373 kts 232°
2026-05-07 19:40 47.68174 9.35331 19886 ft 372 kts 231°
2026-05-07 19:41 47.66535 9.32360 19637 ft 371 kts 232°
2026-05-07 19:41 47.64902 9.29392 19392 ft 370 kts 232°
2026-05-07 19:41 47.63278 9.26441 19151 ft 369 kts 232°
2026-05-07 19:41 47.61655 9.23493 18908 ft 368 kts 232°
2026-05-07 19:42 47.60185 9.20398 18666 ft 366 kts 241°
2026-05-07 19:42 47.59144 9.16966 18428 ft 365 kts 251°
2026-05-07 19:42 47.58545 9.13324 17947 ft 365 kts 260°
2026-05-07 19:42 47.58104 9.09625 17405 ft 362 kts 259°
2026-05-07 19:43 47.57789 9.05961 16866 ft 357 kts 268°
2026-05-07 19:43 47.57936 9.02769 16404 ft 353 kts 278°
2026-05-07 19:43 47.58597 8.99283 15886 ft 349 kts 290°
2026-05-07 19:43 47.59521 8.95967 15365 ft 345 kts 290°
2026-05-07 19:44 47.60421 8.92697 14859 ft 340 kts 290°
2026-05-07 19:44 47.61007 8.90553 14526 ft 338 kts 290°
2026-05-07 19:44 47.62164 8.86303 13864 ft 334 kts 290°
2026-05-07 19:44 47.62906 8.83075 13343 ft 328 kts 279°
2026-05-07 19:45 47.63049 8.80873 13023 ft 323 kts 268°
2026-05-07 19:45 47.62690 8.77630 12546 ft 317 kts 251°
2026-05-07 19:45 47.61864 8.74639 12085 ft 312 kts 247°
2026-05-07 19:45 47.61021 8.71681 11633 ft 309 kts 247°
2026-05-07 19:46 47.60185 8.68734 11162 ft 305 kts 247°
2026-05-07 19:46 47.59368 8.65841 10709 ft 302 kts 248°
2026-05-07 19:46 47.58899 8.62838 10364 ft 296 kts 268°
2026-05-07 19:46 47.59214 8.59892 10216 ft 286 kts 288°
2026-05-07 19:47 47.60198 8.57370 9899 ft 284 kts 309°
2026-05-07 19:47 47.61629 8.55381 9752 ft 281 kts 315°
2026-05-07 19:47 47.63069 8.53432 9619 ft 284 kts 315°
2026-05-07 19:47 47.64520 8.51452 9359 ft 283 kts 314°
2026-05-07 19:48 47.65962 8.49474 8995 ft 282 kts 315°
2026-05-07 19:48 47.67396 8.47503 8627 ft 279 kts 315°
2026-05-07 19:48 47.68809 8.45559 8268 ft 276 kts 315°
2026-05-07 19:48 47.70209 8.43633 7910 ft 273 kts 315°
2026-05-07 19:49 47.71605 8.41710 7497 ft 272 kts 315°
2026-05-07 19:49 47.72970 8.39796 7162 ft 268 kts 310°
2026-05-07 19:49 47.73883 8.37407 6794 ft 262 kts 283°
2026-05-07 19:49 47.73938 8.34776 6472 ft 257 kts 256°
2026-05-07 19:50 47.73199 8.32464 6355 ft 244 kts 230°
2026-05-07 19:50 47.72069 8.30652 6199 ft 236 kts 226°
2026-05-07 19:50 47.70960 8.28900 6014 ft 230 kts 227°
2026-05-07 19:50 47.69732 8.27319 6006 ft 237 kts 206°
2026-05-07 19:51 47.68162 8.26815 5968 ft 229 kts 175°
2026-05-07 19:51 47.66713 8.27603 5872 ft 219 kts 142°
2026-05-07 19:51 47.65636 8.29110 5813 ft 206 kts 134°
2026-05-07 19:51 47.64724 8.30607 5730 ft 187 kts 133°
2026-05-07 19:52 47.63889 8.31996 5623 ft 171 kts 132°
2026-05-07 19:52 47.63112 8.33241 5427 ft 155 kts 135°
2026-05-07 19:52 47.62377 8.34307 5220 ft 145 kts 137°
2026-05-07 19:52 47.61657 8.35298 5022 ft 137 kts 137°
2026-05-07 19:53 47.60974 8.36229 4845 ft 130 kts 137°
2026-05-07 19:53 47.60288 8.37161 4663 ft 134 kts 137°
2026-05-07 19:53 47.59604 8.38092 4480 ft 133 kts 136°
2026-05-07 19:53 47.58919 8.39024 4292 ft 133 kts 136°
2026-05-07 19:54 47.58238 8.39950 4116 ft 133 kts 135°
2026-05-07 19:54 47.57556 8.40878 3937 ft 132 kts 135°
2026-05-07 19:54 47.56882 8.41799 3767 ft 132 kts 135°
2026-05-07 19:54 47.56205 8.42718 3582 ft 132 kts 135°
2026-05-07 19:55 47.55536 8.43630 3414 ft 132 kts 135°
2026-05-07 19:55 47.54860 8.44549 3234 ft 132 kts 134°
2026-05-07 19:55 47.54182 8.45465 3068 ft 132 kts 135°
2026-05-07 19:55 47.53492 8.46370 2920 ft 132 kts 136°
2026-05-07 19:56 47.52865 8.47166 2771 ft 132 kts 137°
2026-05-07 19:56 47.52169 8.48045 2607 ft 132 kts 135°
2026-05-07 19:56 47.51493 8.48966 2338 ft 131 kts 134°
2026-05-07 19:56 47.50931 8.49781 2149 ft 131 kts 133°
2026-05-07 19:57 47.50356 8.50627 2030 ft 132 kts 134°
2026-05-07 19:57 47.49687 8.51551 1870 ft 132 kts 136°
2026-05-07 19:57 47.49021 8.52483 1726 ft 131 kts 135°
2026-05-07 19:57 47.48356 8.53403 1572 ft 130 kts 136°
2026-05-07 19:58 47.47696 8.54302 1409 ft 129 kts 136°
2026-05-07 19:58 47.47103 8.55120 1387 ft 96 kts 135°
2026-05-07 19:58 47.46758 8.55593 1403 ft 25 kts 138°
2026-05-07 19:58 47.46657 8.55724 1403 ft 22 kts 139°
2026-05-07 19:59 47.46548 8.55858 1402 ft 22 kts 149°
2026-05-07 19:59 47.46435 8.55939 1404 ft 11 kts 166°
2026-05-07 19:59 47.46351 8.55966 1409 ft 14 kts 167°
2026-05-07 19:59 47.46282 8.55989 1407 ft 0 kts 170°
2026-05-07 20:00 47.46266 8.55993 1412 ft 10 kts 170°
2026-05-07 20:00 47.46160 8.56006 1406 ft 18 kts 187°
2026-05-07 20:01 47.46025 8.55977 1406 ft 21 kts 188°
2026-05-07 20:01 47.45873 8.55918 1414 ft 23 kts 199°
2026-05-07 20:01 47.45713 8.55867 1410 ft 25 kts 184°
2026-05-07 20:01 47.45555 8.55848 1408 ft 12 kts 185°
2026-05-07 20:02 47.45509 8.55748 1409 ft 15 kts 275°
2026-05-07 20:02 47.45520 8.55582 1409 ft 18 kts 275°
2026-05-07 20:02 47.45479 8.55428 1408 ft 18 kts 187°
2026-05-07 20:02 47.45374 8.55508 1407 ft 17 kts 152°
2026-05-07 20:03 47.45257 8.55575 1412 ft 19 kts 166°
2026-05-07 20:03 47.45126 8.55655 1405 ft 20 kts 152°
2026-05-07 20:03 47.45008 8.55738 1412 ft 15 kts 153°
2026-05-07 20:03 47.44952 8.55827 1406 ft 11 kts 110°
2026-05-07 20:04 47.44954 8.55866 1404 ft 1 kts 36°
2026-05-07 20:04 47.44961 8.55872 1412 ft 0 kts 20°
2026-05-07 20:04 47.44963 8.55872 1412 ft 0 kts 15°
2026-05-07 20:04 47.44970 8.55871 1413 ft 2 kts 353°
2026-05-07 20:05 47.44983 8.55863 1409 ft 1 kts 339°
2026-05-07 20:05 47.44992 8.55858 1407 ft 4 kts 340°
2026-05-07 20:05 47.45029 8.55856 1408 ft 6 kts
2026-05-07 20:05 47.45042 8.55858 1411 ft 0 kts